Flag for Hungary Weather past 2 weeks in Pécs, Hungary

Now
64 °F

Passing clouds.


Feels Like: 64 °F
Forecast: 63 / 82 °F
Wind: 5 mph from Northwest

Location: Pecs / Pogany

Current Time: Jun 30, 2015 at 8:05:27 AM

Latest Report: Jun 30, 2015 at 7:00 AM


Visibility: 31 mi

Pressure: 30.14 "Hg

Humidity: 61%

Dew point: 49 °F

Location of PécsLocation

Historic Weather in Pécs — Graph

°F

Pécs temperature yesterday

Maximum temperature yesterday: 76 °F (at 2:00 PM)
Minimum temperature yesterday: 60 °F (at 6:00 AM)
Average temperature yesterday: 69 °F

Past Weeks' High & Low Weather Summary

 TemperatureHumidityPressure
High82 °F (Jun 15, 3:00 PM)92% (Jun 24, 6:00 AM)30.23 "Hg (Jun 24, 6:00 AM)
Low51 °F (Jun 22, 6:00 AM)35% (Jun 22, 2:00 PM)29.83 "Hg (Jun 15, 5:00 PM)
Average64 °F61%30.02 "Hg
* Reported Jun 15 6:00 AM — Jun 30 6:00 AM, Pécs, Weather by CustomWeather, © 2015

Note: Actual official high and low records may vary slightly from our data, if they occured in-between our weather recording intervals... More about our weather records

Advertising

Pécs weather history for previous 24 hours

 ConditionsComfort  
Time TempWeatherWind HumidityBarometerVisibility
6:00 AM
Tue, Jun 30
62 °FPassing clouds.5 mph62%30.14 "Hg31 mi
5:00 AM62 °FPartly sunny.2 mph63%30.13 "Hg31 mi
4:00 AM60 °FPassing clouds.2 mph68%30.15 "Hg31 mi
3:00 AM56 °FPassing clouds.1 mph78%30.16 "Hg31 mi
2:00 AM61 °FPassing clouds.3 mph69%30.16 "Hg31 mi
1:00 AM62 °FPassing clouds.2 mph67%30.16 "Hg31 mi
12:00 AM62 °FPassing clouds.2 mph65%30.16 "Hg31 mi
10:00 PM
Mon, Jun 29
66 °FPassing clouds.2 mph54%30.16 "Hg31 mi
9:00 PM67 °FPassing clouds.2 mph55%30.14 "Hg31 mi
8:00 PM70 °FScattered clouds.3 mph49%30.12 "Hg31 mi
7:00 PM70 °FOvercast.3 mph48%30.11 "Hg31 mi
6:00 PM72 °FOvercast.5 mph49%30.10 "Hg31 mi
5:00 PM72 °FOvercast.6 mph52%30.12 "Hg31 mi
4:00 PM74 °FOvercast.6 mph50%30.12 "Hg31 mi
3:00 PM74 °FOvercast.5 mph51%30.11 "Hg31 mi
2:00 PM76 °FOvercast.6 mph51%30.12 "Hg31 mi
1:00 PM73 °FOvercast.5 mph57%30.13 "Hg31 mi
12:00 PM74 °FOvercast.2 mph55%30.14 "Hg31 mi
11:00 AM72 °FPartly sunny.2 mph55%30.14 "Hg31 mi
10:00 AM70 °FPartly sunny.2 mph61%30.15 "Hg31 mi
9:00 AM68 °FScattered clouds.2 mph65%30.15 "Hg19 mi
8:00 AM65 °FScattered clouds.3 mph68%30.14 "Hg19 mi
Weather by CustomWeather, © 2015

See weather overviewHow to use our weather pages